Temp
8 8 8 8 9 9 10 10 10 9 9 10 11 11 12 12 12 12 12 11 11 11 11 10 10 10 9 9 9 10 10 11 11 11 12 13 13 13 13 13 13 13 14 15
4 8 8 8 9 10 10 10 10 10 10 11 12 12 12 12 12 12 12 12 12 12 12 11 10 9 9 9 9 9 9 9 9 10 10 10 11 11 12 12 12 13 13 14
7 7 8 8 9 9 9 10 10 10 10 10 11 11 11 11 11 11 11 12 11 12 11 10 10 9 8 8 8 8 8 8 8 8 8 8 8 9 10 11 11 11 11 12
6 7 7 9 9 10 10 9 10 10 10 10 10 10 10 11 11 10 10 10 10 10 9 9 8 8 7 7 7 7 7 7 7 6 6 7 7 8 8 9 9 9 10 10
6 6 7 8 9 10 10 9 9 9 9 10 10 9 11 10 9 9 8 8 8 8 7 7 6 6 6 6 6 6 7 6 5 5 5 5 5 6 6 6 7 8 8 9
2 6 7 10 10 10 9 8 9 9 9 8 9 9 10 8 8 8 7 7 6 6 6 6 5 4 4 5 5 5 5 4 4 4 4 5 5 4 4 4 4 4 6 7
2 6 8 9 9 9 8 9 9 8 9 8 8 8 8 7 7 6 6 6 5 5 5 4 4 4 4 4 4 3 3 3 3 4 4 4 4 3 3 3 3 3 3 5
3 4 6 8 9 9 9 9 8 8 8 7 7 7 7 6 6 5 5 5 5 4 4 4 3 3 3 3 2 1 1 2 2 2 2 2 2 2 2 2 2 3 3 3
7 8 8 8 9 9 8 8 8 7 7 6 6 6 5 5 4 4 4 4 4 4 4 4 3 2 1 1 0 -0 -0 0 0 0 0 -0 -0 0 0 0 1 1 2 1
7 8 8 8 7 7 7 7 8 7 6 6 5 5 4 4 4 3 3 3 4 3 3 2 1 0 0 -0 -0 -0 -0 -0 -1 -0 -1 -1 -1 -1 -1 -1 -0 -0 0 1
7 7 7 7 7 7 8 7 6 6 5 5 4 4 3 4 4 3 3 2 2 2 1 1 0 0 0 0 -0 -0 -1 -1 -1 -1 -1 -1 -1 -1 -1 -1 -1 -1 -1 -0
8 8 9 8 7 7 7 7 6 5 5 4 3 3 3 3 3 2 2 2 2 1 1 1 1 0 -0 -0 -1 -1 -1 -1 -1 -2 -2 -2 -2 -2 -1 -1 -1 -1 -1 -1
8 7 6 7 7 6 7 6 5 4 3 3 3 3 2 2 2 1 1 1 1 0 0 0 -0 -1 -1 -1 -1 -1 -1 -1 -1 -2 -2 -2 -2 -2 -2 -1 -1 -1 -1 -1
6 6 6 6 7 6 5 4 3 2 2 3 3 2 2 1 1 1 1 0 0 0 0 0 -0 -1 -1 -1 -1 -1 -2 -2 -2 -2 -2 -2 -2 -2 -2 -2 -1 -1 -1 -1
5 6 7 6 5 4 3 3 3 3 3 3 3 2 1 1 1 0 -0 -0 -0 0 -0 -0 0 -1 -1 -2 -2 -2 -2 -2 -2 -2 -2 -2 -2 -2 -2 -2 -2 -2 -1 -1
6 5 5 5 5 4 4 3 3 3 3 3 2 2 2 1 1 0 -0 -1 -1 -0 -0 -1 -1 -1 -2 -2 -2 -2 -2 -3 -3 -3 -2 -2 -2 -2 -2 -2 -2 -1 -1 -1
5 4 5 5 4 4 4 4 3 3 2 2 2 2 2 2 1 1 0 -0 -1 -1 -1 -1 -2 -2 -2 -2 -2 -2 -3 -3 -3 -3 -2 -2 -2 -2 -2 -2 -1 -1 -1 -1
6 6 6 6 5 4 3 2 2 2 2 1 1 1 0 0 1 0 1 0 -1 -1 -1 -1 -1 -2 -1 -2 -3 -3 -3 -3 -3 -2 -2 -2 -2 -2 -2 -2 -2 -1 -1 -1
5 5 4 4 3 3 3 2 1 1 1 1 0 0 0 1 2 1 1 -1 -1 -1 -1 -1 -1 -2 -2 -2 -3 -3 -3 -3 -3 -2 -3 -3 -3 -2 -2 -2 -2 -2 -2 -2
3 3 3 2 2 2 1 1 -0 -0 1 -0 -0 -0 -0 1 2 1 0 -1 -1 -1 -1 -1 -1 -2 -3 -3 -3 -3 -3 -3 -3 -3 -3 -3 -3 -3 -3 -3 -2 -2 -2 -2
3 2 1 0 -0 0 0 -0 -1 -1 0 -0 -2 -1 -1 -0 1 1 -1 -0 -0 -1 -1 -1 -2 -3 -3 -3 -3 -4 -4 -4 -3 -3 -3 -3 -3 -3 -3 -3 -3 -2 -2 -2
1 -0 -1 -0 -0 -0 0 -0 -1 -1 -0 -0 -0 -0 -1 -1 -0 0 0 -1 -1 -1 -2 -2 -2 -2 -3 -3 -3 -4 -4 -4 -4 -4 -3 -4 -3 -3 -3 -3 -3 -3 -3 -2
1 1 -0 -0 -1 -1 -0 -1 -1 -1 -2 -1 -2 -2 -2 -1 -1 -1 0 -0 -1 -1 -2 -2 -2 -2 -3 -3 -3 -4 -4 -4 -4 -4 -4 -4 -4 -4 -4 -4 -4 -4 -3 -3
0 -0 -1 -1 -1 -1 -1 -2 -2 -2 -2 -2 -3 -2 -2 -2 -1 -0 -1 -1 -1 -1 -2 -2 -2 -2 -3 -3 -3 -4 -4 -4 -4 -4 -4 -4 -4 -4 -4 -4 -4 -4 -4 -4
-1 -1 -1 -1 -1 -2 -3 -3 -3 -3 -4 -3 -3 -3 -3 -2 -2 -1 -1 -1 -2 -2 -2 -2 -2 -2 -3 -3 -4 -4 -4 -4 -4 -4 -4 -4 -4 -5 -5 -5 -5 -4 -4 -4
-1 -1 -2 -2 -3 -3 -3 -4 -4 -4 -4 -4 -4 -4 -4 -3 -3 -2 -2 -2 -1 -1 -2 -2 -3 -3 -3 -3 -4 -4 -4 -4 -5 -5 -5 -5 -5 -5 -5 -5 -5 -5 -5 -4
-3 -3 -3 -3 -3 -4 -4 -4 -5 -5 -5 -5 -5 -5 -4 -3 -3 -2 -2 -2 -2 -2 -2 -2 -3 -3 -3 -3 -4 -4 -4 -5 -4 -4 -5 -5 -5 -5 -5 -5 -5 -5 -5 -4
Height
842 842 843 838 832 824 819 819 818 828 821 817 812 808 806 806 803 801 801 801 802 797 795 794 790 784 781 779 777 775 774 772 771 768 765 763 761 760 760 757 753 752 749 746
860 841 840 834 827 825 819 820 823 822 821 819 815 812 810 807 804 802 802 799 797 795 796 795 791 789 785 783 781 777 775 775 773 770 768 766 762 760 758 755 753 750 750 748
845 844 837 838 827 826 825 825 823 822 824 822 818 816 815 810 807 806 803 800 798 796 795 793 791 788 787 786 780 779 776 775 773 769 766 763 761 760 758 756 753 751 750 748
848 843 840 823 825 825 824 827 825 825 824 822 821 818 816 812 810 808 805 802 801 798 796 794 791 789 787 784 777 775 777 773 772 770 764 761 762 757 757 753 750 750 748 746
843 844 834 826 823 822 822 825 825 824 824 822 821 818 810 813 813 811 809 806 803 800 797 795 792 790 784 778 778 774 773 768 767 768 764 760 755 755 753 748 747 744 745 742
870 844 835 812 818 821 823 823 822 823 823 823 821 813 809 815 814 810 809 807 804 801 797 794 791 786 782 780 777 773 774 771 768 763 758 753 751 752 748 745 742 738 738 734
865 836 822 813 817 822 826 819 819 821 820 821 819 818 818 817 814 812 809 804 801 797 795 793 790 786 783 779 776 774 773 770 764 757 755 750 749 749 745 740 736 734 731 726
856 847 829 812 816 815 813 815 817 817 818 819 819 819 818 816 814 811 807 802 799 796 793 790 788 785 782 779 777 774 770 765 761 759 757 752 747 742 740 737 733 728 726 721
819 810 808 810 808 810 814 815 815 816 817 818 818 817 818 816 814 810 806 802 799 795 792 789 787 785 780 777 774 769 765 761 757 752 749 746 743 739 736 733 728 722 719 715
812 802 806 808 810 811 812 812 813 814 816 818 818 817 816 814 812 810 805 801 798 795 791 787 785 782 779 774 770 767 762 757 753 749 746 743 738 734 732 727 724 721 717 712
806 805 807 805 806 808 809 810 812 814 815 816 816 815 814 811 808 807 804 801 798 796 793 788 783 779 775 772 769 765 760 755 749 746 742 737 733 731 728 723 718 714 712 709
792 795 796 799 802 805 806 808 811 812 813 815 814 813 811 808 806 804 802 800 797 795 791 788 784 781 776 772 769 764 758 752 746 742 738 732 725 718 717 713 710 707 704 701
788 795 798 798 801 803 804 807 810 811 813 813 812 811 809 806 804 802 800 797 795 792 788 784 781 778 775 771 766 761 754 748 743 737 732 726 720 714 706 701 698 695 691 688
791 794 796 797 797 800 803 807 809 811 812 811 810 809 806 804 801 799 796 794 790 787 783 780 776 773 770 765 760 755 749 744 739 733 728 721 715 709 703 695 687 681 678 678
787 789 791 794 797 801 804 807 808 808 808 807 806 805 803 800 798 795 793 790 786 783 779 775 771 767 764 759 754 747 742 737 732 726 720 714 708 702 696 690 684 679 674 668
782 786 790 792 795 799 802 805 804 804 804 803 802 800 798 796 795 792 788 785 782 778 774 771 767 763 758 753 748 742 736 732 726 721 714 708 703 697 691 685 679 674 668 662
780 783 786 789 793 796 799 800 801 801 800 801 799 797 795 792 790 787 784 781 778 774 770 768 764 759 754 748 743 737 732 725 721 715 709 703 697 690 684 678 672 665 658 653
774 774 778 781 788 793 797 798 798 798 798 797 796 794 792 789 787 783 780 776 772 769 766 763 760 754 749 744 739 733 726 720 715 708 702 697 691 684 677 670 664 657 650 645
773 774 779 783 788 792 795 796 796 796 794 793 791 789 787 785 782 779 776 773 769 765 761 759 755 749 744 739 734 728 722 717 711 705 699 692 686 679 672 665 658 652 645 640
773 776 780 785 789 792 794 794 794 793 790 788 786 784 782 779 777 775 773 770 767 763 759 756 751 745 740 735 730 724 719 713 707 700 694 688 681 675 668 661 654 648 642 636
772 778 782 786 788 790 791 792 791 789 787 785 783 781 778 776 772 770 768 765 763 759 756 752 748 743 738 733 727 722 716 710 704 698 692 686 679 673 667 660 654 648 642 636
774 779 783 784 787 789 789 789 789 787 784 783 780 778 775 771 768 765 764 762 758 756 752 749 745 740 735 730 725 721 715 709 703 697 691 685 679 673 667 661 655 650 645 640
776 779 782 784 786 787 788 787 785 785 783 781 778 775 773 770 766 763 760 758 755 752 749 746 742 737 733 728 724 719 713 707 701 696 690 685 679 674 668 663 658 653 648 643
777 780 783 784 786 786 785 785 784 782 780 777 775 773 771 767 763 759 757 754 751 748 745 743 739 735 731 726 722 717 712 706 700 695 690 685 680 675 670 665 660 656 652 648
778 781 782 784 785 786 786 784 782 780 778 775 772 769 767 765 762 756 753 750 747 745 742 739 736 733 729 725 721 716 711 706 700 695 690 685 681 676 671 667 663 659 655 652
780 782 783 784 785 784 784 783 781 780 778 774 770 768 764 761 757 753 750 747 744 741 738 736 733 730 727 723 720 715 711 706 700 695 691 686 682 678 674 670 666 663 660 658
780 781 782 782 782 782 781 781 780 777 775 773 769 765 761 758 754 751 747 743 740 737 734 732 731 728 725 722 718 715 711 706 701 696 692 688 684 681 677 674 671 668 666 664
Wind_Speed
4 7 7 8 10 7 0 1 1 4 8 10 11 12 10 9 10 11 9 9 8 9 8 13 17 19 21 23 24 25 25 24 24 22 21 19 16 15 14 12 11 8 7 7
1 1 4 3 4 2 8 10 8 5 7 6 9 11 13 12 12 13 12 11 11 9 11 11 8 12 14 16 23 25 25 22 21 20 19 18 18 17 14 14 12 8 8 7
2 4 3 1 1 2 2 2 1 1 3 7 9 11 12 12 11 12 12 13 13 12 12 13 12 11 12 13 15 17 16 18 22 24 24 23 21 19 19 18 16 14 13 11
1 0 3 2 3 4 6 4 5 4 5 7 7 9 8 9 9 10 13 13 12 14 14 12 13 15 16 17 17 17 16 13 15 19 22 25 23 21 21 18 17 17 17 16
1 2 4 3 5 6 6 6 3 3 6 6 8 9 7 11 13 11 10 11 12 13 14 13 14 16 19 20 18 17 19 20 19 19 18 18 20 19 19 20 19 17 19 19
2 2 5 3 6 4 4 5 6 3 5 6 8 8 9 13 11 14 16 14 14 15 16 16 19 21 18 16 16 16 16 20 20 20 20 20 18 21 21 19 22 21 25 22
3 4 5 6 5 6 4 2 3 3 5 5 6 5 11 8 11 14 17 21 21 19 17 18 18 17 17 17 17 18 19 20 20 19 22 21 21 22 21 20 22 23 27 28
3 3 6 7 5 6 2 2 4 4 4 6 6 7 7 11 12 15 17 20 21 20 20 20 18 20 19 17 17 18 19 20 18 17 19 20 22 23 24 25 24 22 22 24
8 4 1 6 2 4 1 4 3 3 3 2 6 7 9 10 11 15 17 17 17 20 22 19 20 18 19 19 19 22 20 20 21 21 23 23 22 21 20 20 21 23 21 21
3 5 9 8 5 3 3 4 3 3 1 2 6 8 10 10 11 14 16 15 17 15 19 23 21 20 20 21 23 23 23 24 23 22 23 21 21 22 21 19 19 19 20 22
5 5 3 9 9 7 3 3 4 1 1 3 5 7 7 11 13 12 14 14 11 14 14 18 21 23 24 23 22 25 25 25 25 24 25 25 22 21 22 23 23 24 25 26
5 6 5 3 4 6 2 3 4 1 2 3 4 7 12 11 13 13 14 13 13 14 16 17 16 17 22 19 21 23 24 25 25 25 25 26 26 27 24 24 26 27 30 34
7 6 6 3 2 3 4 5 3 1 2 3 6 10 13 13 12 13 13 13 14 17 18 17 16 17 18 20 20 22 23 25 25 26 26 26 26 25 26 30 27 28 29 31
7 6 4 5 2 6 7 6 4 1 2 3 7 10 11 14 15 14 14 16 16 16 17 17 17 18 20 23 22 23 23 23 23 24 25 26 26 26 26 26 25 28 29 30
9 12 5 7 9 7 7 6 3 2 2 4 6 6 9 13 15 17 18 17 17 17 16 18 20 18 23 25 23 25 24 24 23 26 26 26 26 25 26 26 26 27 28 31
11 10 10 7 8 8 7 5 3 2 3 6 8 8 8 11 16 17 17 17 16 16 20 18 20 20 26 25 24 25 22 24 24 25 25 25 23 24 24 23 24 25 25 26
5 8 10 8 10 9 7 4 4 4 5 8 10 10 9 12 13 15 17 18 19 21 20 15 21 25 28 26 24 24 25 23 22 24 22 23 24 24 23 24 24 24 24 25
6 8 11 11 10 8 4 5 5 6 9 9 11 13 12 11 12 16 21 23 23 20 15 18 27 29 28 27 26 27 24 23 24 24 24 23 24 26 25 23 23 22 23 25
8 9 11 13 11 7 3 1 3 7 12 12 12 13 14 16 18 19 22 19 17 17 15 23 28 28 27 27 28 27 24 23 23 22 22 24 23 23 23 23 22 23 22 21
12 14 16 12 8 4 1 2 6 10 13 12 13 15 14 17 17 19 19 15 18 18 19 23 27 26 24 26 28 25 23 22 22 22 22 23 22 23 22 22 22 21 20 20
15 15 13 10 6 2 1 4 6 10 14 14 14 15 16 20 19 17 12 13 20 23 19 21 24 22 23 26 25 24 22 22 21 21 22 22 22 21 20 20 20 19 18 16
15 11 10 8 4 1 4 5 8 12 15 14 15 17 17 17 18 14 14 15 19 22 19 20 23 23 25 26 21 23 22 21 20 19 19 21 20 20 19 18 18 18 17 14
12 10 9 7 3 3 5 8 13 14 15 16 17 15 14 17 16 12 11 13 20 23 19 19 22 23 23 23 21 22 20 21 21 19 20 20 19 18 16 16 16 15 14 13
10 8 7 4 3 5 8 11 14 14 15 15 12 15 15 15 17 16 18 20 20 20 18 17 20 21 21 20 21 21 20 20 20 20 19 18 17 16 14 14 14 13 13 11
9 7 5 4 4 3 5 9 11 11 13 15 16 15 16 14 16 22 21 20 20 19 17 15 17 19 19 18 19 20 19 20 20 18 17 16 15 14 14 13 12 12 11 10
7 4 2 1 0 2 5 7 9 11 12 14 18 17 19 19 23 25 24 19 18 20 18 14 16 18 17 16 17 18 17 17 17 17 16 15 14 13 12 12 11 11 11 12
4 2 1 0 1 5 5 6 9 12 12 13 17 20 21 21 23 24 23 21 19 19 17 12 13 15 15 16 16 16 15 16 17 16 15 14 13 12 12 11 10 11 12 13
Wind_Direction
268 257 267 274 310 354 91 15 75 110 60 27 17 15 13 8 11 6 9 23 13 18 23 19 8 4 3 3 4 5 1 0 3 2 7 13 16 12 11 9 7 2 9 15
275 105 273 283 13 73 82 90 100 96 64 359 2 357 349 345 349 354 353 348 341 351 2 6 14 5 5 6 3 359 358 352 350 349 358 2 2 0 354 350 342 334 318 316
197 339 129 269 210 79 93 63 175 210 20 355 350 343 334 323 323 332 333 342 336 340 342 351 359 5 359 349 352 344 343 340 337 341 340 342 348 346 345 343 338 321 302 288
249 325 198 136 273 225 131 111 93 63 4 341 329 316 300 327 333 340 333 335 341 346 346 355 350 346 344 341 346 340 329 334 330 330 331 329 326 332 328 325 328 327 315 299
195 231 311 184 187 180 198 193 142 4 334 327 332 313 324 11 345 338 346 341 345 348 343 342 345 340 335 333 328 325 320 325 328 323 319 318 324 325 322 325 319 315 312 303
149 228 224 158 157 164 159 242 186 316 310 323 333 323 329 342 346 342 343 342 341 338 332 334 334 331 333 334 332 333 327 321 317 319 320 322 319 320 317 312 312 311 303 303
170 240 270 219 175 153 200 147 233 266 307 310 308 301 311 322 330 333 329 329 333 336 336 336 338 340 336 333 333 329 322 317 317 321 316 314 309 309 310 309 311 309 305 298
142 206 263 170 152 206 116 237 281 294 292 302 301 309 322 328 329 330 328 326 330 331 333 334 338 338 333 333 331 327 324 323 322 317 314 310 308 307 304 304 300 300 299 297
203 213 251 184 167 137 156 236 252 260 306 284 313 320 330 328 329 327 323 320 323 326 326 329 335 338 332 334 336 332 330 329 323 322 322 318 313 308 307 305 301 300 295 293
172 210 220 215 235 246 211 231 247 199 275 323 313 330 332 331 333 330 329 328 329 335 329 328 336 335 330 328 328 324 322 322 320 316 315 309 302 302 299 297 295 292 293 292
241 264 283 249 230 244 199 236 190 181 283 311 318 324 325 330 331 332 325 331 333 335 328 321 324 323 323 322 324 319 316 316 315 315 311 311 304 297 289 288 285 287 287 284
221 197 198 148 132 155 271 201 180 201 297 325 314 329 336 334 332 329 328 325 325 322 317 317 319 317 320 318 321 316 310 311 309 307 307 305 303 301 296 290 286 286 284 282
227 181 200 164 223 210 196 161 138 118 298 313 335 337 341 333 326 318 316 314 314 312 309 312 312 317 318 317 312 305 299 302 301 302 303 304 302 300 302 303 296 292 289 288
196 153 197 209 244 151 135 130 133 166 247 295 325 328 336 337 325 315 312 306 307 308 310 312 314 320 323 321 315 310 306 301 298 296 297 296 296 294 295 297 299 301 298 290
209 202 175 130 133 132 137 154 183 213 246 304 312 309 332 335 331 323 315 308 303 305 305 311 320 319 327 324 318 314 310 309 304 302 299 294 295 294 291 290 287 286 288 288
198 198 189 188 176 162 168 190 208 238 263 280 293 302 318 333 333 328 322 316 305 307 307 313 322 321 326 322 319 316 308 307 305 301 299 298 299 295 290 286 284 282 282 281
180 197 189 184 171 176 196 204 226 248 271 277 288 301 302 331 322 323 326 324 312 305 308 321 326 326 329 329 321 319 314 311 311 305 304 305 304 300 297 294 291 287 281 282
215 181 177 166 166 171 190 225 244 268 271 283 296 307 303 312 308 312 323 325 320 316 310 333 336 334 335 334 326 325 320 318 313 311 313 313 310 309 304 301 302 300 300 298
175 150 146 143 149 152 161 241 283 290 296 303 300 299 296 302 312 319 323 313 308 313 314 333 338 336 335 334 333 326 321 318 317 318 319 317 315 315 313 311 310 311 308 305
132 127 124 123 129 133 163 308 317 311 316 308 306 308 285 300 309 314 320 305 310 311 316 332 336 334 333 331 333 328 324 321 322 323 323 321 320 321 319 320 320 321 320 322
129 126 118 128 131 123 342 333 340 341 331 323 316 299 296 300 300 306 308 317 318 318 313 332 337 332 331 334 334 330 326 323 325 325 325 324 323 324 325 328 328 333 336 341
126 126 133 124 117 25 17 359 355 356 351 338 333 328 318 298 297 299 304 295 317 322 311 329 336 335 337 338 331 332 326 326 328 328 327 327 327 329 331 335 338 341 349 357
115 117 113 98 77 17 353 0 357 353 346 336 328 330 328 319 306 302 308 315 315 321 315 325 335 336 337 339 334 330 329 329 331 333 331 332 332 335 337 342 345 349 356 5
112 107 102 83 57 19 0 344 343 341 338 333 321 320 326 318 312 308 311 317 322 321 313 322 335 337 338 339 339 334 333 334 336 337 336 338 339 340 344 350 353 357 6 19
111 103 84 47 22 5 337 335 336 344 340 330 328 329 326 323 315 315 314 316 323 318 310 320 333 336 338 339 341 341 340 341 343 343 341 341 343 347 351 356 3 11 22 34
111 102 114 119 355 345 342 344 339 339 342 340 330 329 326 321 322 324 322 319 323 321 312 314 332 335 337 338 340 343 343 343 347 349 350 349 351 356 0 8 18 30 48 69
112 111 109 52 10 350 344 338 332 330 332 332 321 325 322 318 316 315 323 317 317 319 317 307 326 333 335 339 341 343 344 348 355 357 358 359 4 7 12 22 35 50 66 77